Weather History for Jackson, MS

Change the Weather History Date:

Sunday, May 26, 2013

  Actual Average Record
Temperature  
Mean Temperature 74 °F 75 °F  
Max Temperature 87 °F 86 °F 99 °F (1964)
Min Temperature 60 °F 65 °F 44 °F (1979)
Degree Days  
Heating Degree Days 0 0  
Month to date heating degree days 52 10  
Since 1 July heating degree days 2309 2389  
Cooling Degree Days 9 10  
Month to date cooling degree days 147 186  
Year to date cooling degree days 255 304  
Growing Degree Days 24 (Base 50)    
Moisture  
Dew Point 57 °F    
Average Humidity 58    
Maximum Humidity 87    
Minimum Humidity 29    
Precipitation  
Precipitation 0.00 in 0.14 in 3.80 in (1909)
Month to date precipitation 5.17 3.66  
Year to date precipitation 32.94 23.39  
Sea Level Pressure  
Sea Level Pressure 30.15 in    
Wind  
Wind Speed 4 mph (SSE)    
Max Wind Speed 12 mph    
Max Gust Speed 15 mph    
Visibility 10 miles    
Events      
T = Trace of Precipitation, MM = Missing Value Source: NWS Daily Summary

Daily Weather History Graph

Daily Weather History Graph

Search for Another Location

Airport:

Trip Planner

Search our weather history database for the weather conditions in past years. The results will help you decide how hot, cold, wet, or windy it might be!

Date:

Astronomy

May. 26, 2013 Rise Set
Actual Time 5:56 AM CDT 7:58 PM CDT
Civil Twilight 5:28 AM CDT 8:26 PM CDT
Nautical Twilight 4:54 AM CDT 9:00 PM CDT
Astronomical Twilight 4:18 AM CDT 9:36 PM CDT
Moon 9:48 PM CDT 7:24 AM CDT
Length of Visible Light 14h 58m
Length of Day
14h 02m
Waning Gibbous, 96% of the Moon is Illuminated
May 26
Waning Gibbous
May 31
Last Quarter
Jun 8
New
Jun 16
First Quarter
Jun 23
Full

Hourly Weather History & Observations

Time (CDT) Temp. Heat Index Dew Point Humidity Pressure Visibility Wind Dir Wind Speed Gust Speed Precip Events Conditions
12:54 AM 62.1 °F - 57.0 °F 84% 30.16 in 10.0 mi Calm Calm - N/A   Clear
1:54 AM 62.1 °F - 57.0 °F 84% 30.13 in 10.0 mi Calm Calm - N/A   Clear
2:54 AM 64.0 °F - 57.0 °F 78% 30.14 in 10.0 mi SSE 5.8 mph - N/A   Clear
3:54 AM 62.1 °F - 57.0 °F 84% 30.15 in 10.0 mi Calm Calm - N/A   Clear
4:54 AM 62.1 °F - 55.9 °F 80% 30.17 in 10.0 mi SSW 4.6 mph - N/A   Clear
5:54 AM 61.0 °F - 55.9 °F 83% 30.19 in 10.0 mi Calm Calm - N/A   Clear
6:54 AM 63.0 °F - 57.9 °F 84% 30.19 in 10.0 mi Calm Calm - N/A   Clear
7:54 AM 69.1 °F - 60.1 °F 73% 30.19 in 10.0 mi Calm Calm - N/A   Clear
8:54 AM 75.0 °F - 62.1 °F 64% 30.20 in 10.0 mi Calm Calm - N/A   Clear
9:54 AM 79.0 °F - 60.1 °F 52% 30.19 in 10.0 mi SSE 4.6 mph - N/A   Clear
10:54 AM 81.0 °F 80.5 °F 54.0 °F 39% 30.19 in 10.0 mi Calm Calm - N/A   Clear
11:54 AM 84.9 °F - 48.9 °F 29% 30.19 in 10.0 mi Variable 4.6 mph - N/A   Clear
12:54 PM 84.0 °F 82.9 °F 55.0 °F 37% 30.17 in 10.0 mi SE 8.1 mph - N/A   Clear
1:54 PM 86.0 °F 84.5 °F 55.0 °F 35% 30.16 in 10.0 mi Variable 3.5 mph - N/A   Clear
2:54 PM 84.9 °F 83.7 °F 55.9 °F 37% 30.14 in 10.0 mi South 8.1 mph - N/A   Clear
3:54 PM 84.0 °F 82.9 °F 55.0 °F 37% 30.12 in 10.0 mi SE 8.1 mph - N/A   Clear
4:54 PM 82.9 °F 82.1 °F 55.9 °F 39% 30.12 in 10.0 mi SSE 8.1 mph - N/A   Clear
5:54 PM 82.0 °F 81.7 °F 57.0 °F 42% 30.11 in 10.0 mi SSW 8.1 mph - N/A   Clear
6:54 PM 80.1 °F 80.2 °F 55.9 °F 43% 30.10 in 10.0 mi South 6.9 mph - N/A   Clear
7:54 PM 77.0 °F - 59.0 °F 54% 30.10 in 10.0 mi SE 4.6 mph - N/A   Clear
8:54 PM 73.0 °F - 61.0 °F 66% 30.10 in 10.0 mi SE 5.8 mph - N/A   Clear
9:54 PM 70.0 °F - 62.1 °F 76% 30.11 in 10.0 mi Calm Calm - N/A   Clear
10:54 PM 69.1 °F - 62.1 °F 78% 30.12 in 10.0 mi Calm Calm - N/A   Clear
11:54 PM 66.9 °F - 62.1 °F 84% 30.12 in 10.0 mi SE 8.1 mph - N/A   Clear